This demonstration page uses our WeatherBlox Daily Observations layout. Learn more.

Left ArrowRight Arrow

Hourly Observations for November 7, 2019

Temp ( °F °C ) Dew Point ( °F °C ) Humidity (%) Winds ( mph kmh ) Pressure ( in mb ) Visibility ( mi km ) Precip ( " mm )
12:56 am 00:56 Partly Cloudy 22 -5.6 14 -10 71 71 N 18 30 30.66 1038 10 16 0.00 0.00
1:56 am 01:56 Clear 20 -6.7 13 -10.6 74 74 N 16 26 30.66 1038 10 16 0.00 0.00
2:56 am 02:56 Clear 16 -8.9 11 -11.7 80 80 N 13 20 30.68 1039 10 16 0.00 0.00
3:56 am 03:56 Clear 13 -10.6 9 -12.8 84 84 N 9 15 30.69 1039 10 16 0.00 0.00
4:56 am 04:56 Clear 13 -10.6 9 -12.8 84 84 N 7 11 30.69 1039 10 16 0.00 0.00
5:56 am 05:56 Clear 12 -11.1 8 -13.3 84 84 NW 3 6 30.69 1039 10 16 0.00 0.00
6:56 am 06:56 Clear 10 -12.2 7 -13.9 87 87 WNW 6 9 30.69 1039 10 16 0.00 0.00
7:56 am 07:56 Sunny 12 -11.1 8 -13.3 84 84 WNW 6 9 30.68 1039 10 16 0.00 0.00
8:56 am 08:56 Sunny 17 -8.3 10 -12.2 74 74 WNW 3 6 30.69 1039 10 16 0.00 0.00
9:56 am 09:56 Sunny 21 -6.1 10 -12.2 62 62 SW 5 7 30.68 1039 10 16 0.00 0.00
10:56 am 10:56 Sunny 25 -3.9 9 -12.8 50 50 SW 7 11 30.66 1038 10 16 0.00 0.00
11:56 am 11:56 Sunny 29 -1.7 10 -12.2 45 45 WSW 5 7 30.61 1037 10 16 0.00 0.00
12:56 pm 12:56 Sunny 32 0 10 -12.2 40 40 SW 14 22 30.58 1036 10 16 0.00 0.00
1:56 pm 13:56 Sunny 36 2.2 10 -12.2 34 34 WSW 12 19 30.54 1034 10 16 0.00 0.00
2:56 pm 14:56 Sunny 38 3.3 15 -9.4 39 39 WSW 12 19 30.51 1033 10 16 0.00 0.00
3:56 pm 15:56 Sunny 38 3.3 18 -7.8 44 44 SW 10 17 30.51 1033 10 16 0.00 0.00
4:56 pm 16:56 Sunny 38 3.3 19 -7.2 46 46 SW 8 13 30.50 1033 10 16 0.00 0.00
5:56 pm 17:56 Clear 33 0.6 19 -7.2 56 56 SSW 6 9 30.51 1033 10 16 0.00 0.00
6:56 pm 18:56 Clear 29 -1.7 20 -6.7 69 69 SSW 6 9 30.53 1034 10 16 0.00 0.00
7:56 pm 19:56 Clear 25 -3.9 18 -7.8 75 75 SSW 6 9 30.52 1034 10 16 0.00 0.00
8:56 pm 20:56 Clear 26 -3.3 19 -7.2 75 75 SSW 9 15 30.50 1033 10 16 0.00 0.00
9:56 pm 21:56 Clear 26 -3.3 18 -7.8 71 71 SSW 10 17 30.49 1033 10 16 0.00 0.00
10:56 pm 22:56 Clear 26 -3.3 19 -7.2 75 75 SW 10 17 30.48 1032 10 16 0.00 0.00
11:56 pm 23:56 Clear 26 -3.3 18 -7.8 71 71 SW 8 13 30.46 1032 10 16 0.00 0.00

Powered by AerisWeather